Precipitable_Water
0.68 0.46 0.40 0.36 0.41 0.49 0.54 0.56 0.55 0.56 0.56 0.53 0.48 0.42 0.38 0.41 0.47 0.55 0.58 0.59 0.64 0.62 0.64 0.67 0.62 0.58 0.57 0.55 0.51 0.48 0.47 0.46 0.44 0.39 0.35 0.31 0.27 0.26 0.27 0.29 0.32 0.33 0.31 0.39 0.45 0.48 0.51 0.54 0.58 0.60 0.63 0.63 0.65 0.66 0.68 0.70 0.72 0.74 0.74 0.76 0.75 0.82 0.88 0.87 0.85 0.85 0.84 0.80 0.81 0.84 0.82 0.79 0.84 0.86 0.91 0.92 0.94 0.95 0.96 0.97 0.96 0.93 0.93 0.94 0.94 0.95
0.66 0.45 0.40 0.45 0.50 0.52 0.55 0.59 0.61 0.59 0.57 0.50 0.43 0.41 0.41 0.46 0.46 0.56 0.57 0.59 0.60 0.55 0.55 0.65 0.64 0.59 0.57 0.56 0.53 0.48 0.46 0.45 0.45 0.41 0.38 0.33 0.28 0.26 0.25 0.26 0.28 0.30 0.38 0.40 0.39 0.43 0.48 0.51 0.54 0.58 0.58 0.60 0.57 0.60 0.64 0.62 0.64 0.69 0.73 0.73 0.74 0.81 0.84 0.84 0.84 0.83 0.83 0.83 0.80 0.77 0.77 0.80 0.82 0.84 0.84 0.83 0.90 0.93 0.97 0.97 0.96 0.94 0.94 0.95 0.96 0.95
0.47 0.37 0.44 0.54 0.58 0.59 0.59 0.61 0.62 0.58 0.53 0.50 0.43 0.43 0.44 0.46 0.55 0.60 0.59 0.59 0.58 0.54 0.49 0.57 0.60 0.61 0.60 0.57 0.55 0.49 0.45 0.47 0.48 0.45 0.41 0.37 0.31 0.27 0.25 0.25 0.25 0.28 0.29 0.32 0.34 0.39 0.42 0.47 0.51 0.53 0.55 0.56 0.57 0.58 0.58 0.60 0.61 0.64 0.67 0.69 0.72 0.76 0.79 0.81 0.85 0.84 0.79 0.82 0.85 0.84 0.83 0.84 0.82 0.89 0.90 0.91 0.93 0.97 0.97 0.97 0.98 0.97 0.95 0.94 0.92 0.92
0.35 0.42 0.53 0.58 0.60 0.56 0.55 0.57 0.56 0.55 0.54 0.48 0.47 0.42 0.38 0.49 0.50 0.45 0.55 0.54 0.54 0.54 0.49 0.50 0.52 0.58 0.63 0.60 0.56 0.50 0.47 0.47 0.49 0.48 0.44 0.42 0.36 0.29 0.25 0.24 0.24 0.25 0.25 0.25 0.26 0.29 0.35 0.40 0.44 0.48 0.50 0.52 0.56 0.55 0.56 0.59 0.59 0.61 0.61 0.63 0.67 0.71 0.76 0.79 0.82 0.82 0.83 0.84 0.86 0.89 0.89 0.90 0.89 0.83 0.89 0.91 0.94 0.95 0.95 0.94 1.01 1.02 1.00 0.97 0.94 0.93
0.36 0.45 0.60 0.59 0.57 0.55 0.51 0.53 0.51 0.49 0.45 0.52 0.51 0.48 0.46 0.45 0.49 0.52 0.46 0.49 0.52 0.54 0.56 0.54 0.51 0.53 0.60 0.59 0.56 0.54 0.49 0.48 0.48 0.47 0.47 0.44 0.41 0.35 0.30 0.27 0.26 0.25 0.25 0.24 0.24 0.26 0.28 0.32 0.35 0.39 0.43 0.49 0.48 0.48 0.50 0.53 0.55 0.56 0.56 0.58 0.61 0.65 0.69 0.74 0.78 0.80 0.83 0.84 0.83 0.86 0.88 0.90 0.88 0.88 0.86 0.84 0.82 0.87 0.90 0.93 0.95 0.97 1.02 1.01 0.97 0.95
0.48 0.57 0.60 0.53 0.52 0.55 0.53 0.50 0.51 0.51 0.46 0.49 0.54 0.53 0.52 0.52 0.50 0.53 0.53 0.49 0.45 0.43 0.48 0.50 0.40 0.39 0.54 0.59 0.57 0.56 0.50 0.45 0.47 0.46 0.46 0.46 0.41 0.37 0.31 0.27 0.26 0.26 0.27 0.26 0.24 0.24 0.26 0.27 0.30 0.36 0.40 0.43 0.45 0.47 0.50 0.53 0.53 0.52 0.52 0.56 0.60 0.63 0.66 0.68 0.73 0.78 0.81 0.78 0.75 0.74 0.71 0.68 0.69 0.67 0.69 0.66 0.68 0.74 0.79 0.84 0.95 0.98 0.98 0.98 0.97 0.95
0.51 0.61 0.60 0.52 0.49 0.50 0.51 0.49 0.55 0.57 0.48 0.46 0.48 0.60 0.58 0.57 0.55 0.52 0.49 0.49 0.39 0.35 0.46 0.49 0.39 0.31 0.45 0.49 0.55 0.56 0.51 0.47 0.46 0.46 0.47 0.47 0.42 0.38 0.34 0.30 0.26 0.25 0.25 0.26 0.26 0.24 0.25 0.26 0.28 0.31 0.35 0.38 0.40 0.43 0.49 0.51 0.51 0.53 0.54 0.55 0.56 0.57 0.60 0.65 0.69 0.74 0.76 0.75 0.75 0.73 0.70 0.69 0.67 0.65 0.68 0.76 0.80 0.80 0.84 0.90 0.91 0.93 0.97 0.98 0.94 0.92
0.55 0.57 0.58 0.59 0.55 0.50 0.48 0.46 0.56 0.58 0.52 0.45 0.59 0.62 0.60 0.56 0.53 0.51 0.51 0.50 0.44 0.46 0.47 0.49 0.45 0.36 0.35 0.46 0.57 0.57 0.54 0.49 0.45 0.46 0.47 0.47 0.44 0.40 0.37 0.33 0.29 0.27 0.26 0.25 0.24 0.23 0.23 0.24 0.26 0.26 0.30 0.34 0.36 0.40 0.45 0.46 0.49 0.50 0.52 0.53 0.53 0.55 0.58 0.63 0.67 0.70 0.72 0.69 0.70 0.70 0.70 0.71 0.70 0.69 0.69 0.75 0.78 0.84 0.87 0.87 0.89 0.92 0.94 0.95 0.92 0.89
0.50 0.49 0.54 0.50 0.51 0.49 0.44 0.49 0.58 0.63 0.53 0.50 0.58 0.62 0.57 0.58 0.56 0.54 0.52 0.49 0.48 0.43 0.36 0.42 0.44 0.37 0.32 0.39 0.51 0.56 0.50 0.50 0.48 0.46 0.46 0.46 0.45 0.43 0.40 0.35 0.31 0.29 0.27 0.25 0.24 0.22 0.22 0.22 0.24 0.26 0.28 0.32 0.36 0.40 0.41 0.43 0.47 0.50 0.51 0.53 0.55 0.55 0.56 0.59 0.64 0.66 0.68 0.70 0.69 0.69 0.69 0.68 0.72 0.74 0.76 0.81 0.85 0.84 0.86 0.84 0.87 0.88 0.90 0.91 0.90 0.90
0.54 0.56 0.55 0.57 0.50 0.44 0.52 0.57 0.62 0.63 0.51 0.53 0.60 0.61 0.60 0.58 0.56 0.55 0.51 0.49 0.47 0.41 0.31 0.38 0.42 0.33 0.30 0.39 0.43 0.43 0.46 0.46 0.48 0.49 0.48 0.45 0.44 0.44 0.41 0.39 0.35 0.32 0.29 0.27 0.25 0.25 0.24 0.24 0.23 0.26 0.29 0.32 0.34 0.37 0.41 0.44 0.48 0.50 0.53 0.54 0.54 0.53 0.56 0.58 0.60 0.63 0.66 0.69 0.70 0.69 0.69 0.68 0.69 0.74 0.77 0.80 0.79 0.81 0.83 0.81 0.83 0.86 0.87 0.88 0.87 0.88
0.53 0.63 0.68 0.60 0.52 0.54 0.56 0.61 0.65 0.65 0.61 0.62 0.59 0.54 0.53 0.53 0.52 0.53 0.52 0.48 0.44 0.34 0.32 0.42 0.42 0.38 0.27 0.33 0.38 0.39 0.38 0.46 0.52 0.51 0.49 0.45 0.42 0.43 0.42 0.40 0.37 0.34 0.32 0.29 0.27 0.26 0.26 0.25 0.25 0.27 0.28 0.30 0.34 0.37 0.39 0.41 0.44 0.47 0.49 0.51 0.52 0.54 0.58 0.60 0.60 0.62 0.61 0.65 0.68 0.67 0.68 0.68 0.68 0.71 0.74 0.74 0.75 0.78 0.79 0.78 0.80 0.83 0.86 0.87 0.85 0.87
0.52 0.56 0.54 0.59 0.64 0.62 0.64 0.59 0.69 0.68 0.63 0.58 0.51 0.48 0.46 0.44 0.47 0.44 0.43 0.45 0.33 0.26 0.34 0.41 0.42 0.41 0.26 0.25 0.36 0.42 0.47 0.50 0.52 0.52 0.52 0.48 0.42 0.40 0.40 0.39 0.38 0.35 0.33 0.33 0.30 0.28 0.27 0.26 0.25 0.26 0.27 0.29 0.32 0.35 0.36 0.38 0.41 0.44 0.46 0.49 0.49 0.54 0.58 0.60 0.62 0.62 0.61 0.63 0.64 0.67 0.68 0.68 0.71 0.72 0.72 0.72 0.72 0.75 0.75 0.77 0.78 0.83 0.84 0.83 0.83 0.84
0.43 0.45 0.52 0.54 0.61 0.59 0.55 0.53 0.57 0.58 0.56 0.51 0.48 0.46 0.36 0.30 0.32 0.26 0.32 0.26 0.27 0.23 0.30 0.38 0.40 0.35 0.27 0.28 0.37 0.41 0.43 0.48 0.52 0.54 0.54 0.54 0.51 0.43 0.39 0.37 0.36 0.36 0.34 0.34 0.33 0.31 0.30 0.29 0.28 0.27 0.27 0.29 0.30 0.32 0.34 0.35 0.37 0.40 0.43 0.46 0.45 0.47 0.54 0.57 0.60 0.60 0.61 0.63 0.63 0.64 0.67 0.69 0.72 0.73 0.74 0.75 0.75 0.78 0.78 0.79 0.79 0.79 0.77 0.79 0.77 0.78
0.39 0.51 0.50 0.52 0.55 0.60 0.57 0.43 0.42 0.40 0.45 0.43 0.39 0.37 0.31 0.23 0.21 0.18 0.21 0.25 0.24 0.28 0.33 0.33 0.34 0.27 0.28 0.34 0.39 0.41 0.48 0.48 0.48 0.50 0.53 0.53 0.52 0.48 0.39 0.36 0.35 0.35 0.34 0.33 0.33 0.33 0.32 0.31 0.30 0.30 0.29 0.29 0.30 0.31 0.34 0.36 0.36 0.38 0.40 0.43 0.43 0.43 0.49 0.54 0.56 0.58 0.60 0.62 0.64 0.66 0.67 0.69 0.72 0.72 0.74 0.76 0.77 0.79 0.81 0.82 0.81 0.80 0.79 0.76 0.75 0.77
0.26 0.30 0.41 0.45 0.40 0.57 0.55 0.51 0.47 0.40 0.39 0.39 0.44 0.40 0.32 0.27 0.20 0.15 0.17 0.15 0.17 0.21 0.27 0.32 0.27 0.20 0.18 0.25 0.36 0.40 0.46 0.48 0.50 0.49 0.49 0.51 0.53 0.52 0.45 0.37 0.35 0.34 0.33 0.32 0.32 0.32 0.32 0.32 0.31 0.30 0.30 0.30 0.31 0.32 0.34 0.36 0.37 0.38 0.39 0.41 0.42 0.43 0.47 0.51 0.53 0.56 0.57 0.60 0.64 0.67 0.70 0.71 0.73 0.73 0.74 0.76 0.79 0.80 0.81 0.84 0.83 0.83 0.82 0.77 0.78 0.79
0.32 0.28 0.37 0.51 0.50 0.55 0.50 0.56 0.57 0.51 0.46 0.47 0.47 0.48 0.39 0.32 0.37 0.25 0.26 0.26 0.24 0.25 0.23 0.24 0.24 0.25 0.24 0.31 0.37 0.41 0.42 0.42 0.44 0.46 0.49 0.50 0.52 0.52 0.49 0.41 0.35 0.34 0.33 0.32 0.31 0.31 0.32 0.33 0.31 0.29 0.28 0.28 0.30 0.32 0.34 0.35 0.37 0.38 0.38 0.40 0.41 0.42 0.44 0.48 0.51 0.53 0.56 0.59 0.63 0.66 0.68 0.71 0.73 0.75 0.77 0.78 0.81 0.83 0.85 0.85 0.85 0.84 0.82 0.80 0.79 0.80
0.34 0.30 0.41 0.47 0.51 0.49 0.51 0.55 0.54 0.55 0.32 0.41 0.44 0.35 0.38 0.45 0.41 0.32 0.30 0.29 0.28 0.26 0.21 0.26 0.24 0.26 0.31 0.33 0.36 0.38 0.37 0.36 0.39 0.40 0.42 0.46 0.51 0.53 0.51 0.48 0.41 0.35 0.33 0.32 0.32 0.32 0.32 0.33 0.33 0.31 0.29 0.29 0.30 0.31 0.32 0.34 0.37 0.37 0.38 0.40 0.41 0.44 0.47 0.49 0.50 0.52 0.56 0.59 0.61 0.63 0.67 0.71 0.73 0.75 0.74 0.75 0.78 0.81 0.86 0.87 0.87 0.85 0.83 0.82 0.80 0.81
0.30 0.30 0.42 0.42 0.40 0.49 0.55 0.55 0.54 0.56 0.54 0.45 0.34 0.38 0.45 0.49 0.44 0.35 0.24 0.25 0.24 0.20 0.20 0.24 0.21 0.22 0.26 0.20 0.30 0.34 0.35 0.37 0.37 0.38 0.39 0.40 0.43 0.46 0.49 0.51 0.47 0.38 0.35 0.35 0.34 0.34 0.34 0.35 0.34 0.34 0.33 0.32 0.31 0.31 0.32 0.34 0.38 0.40 0.41 0.42 0.42 0.44 0.45 0.48 0.51 0.54 0.56 0.58 0.59 0.62 0.66 0.70 0.73 0.74 0.76 0.79 0.80 0.84 0.84 0.84 0.84 0.83 0.80 0.78 0.78 0.77
0.43 0.30 0.38 0.44 0.45 0.50 0.57 0.55 0.49 0.54 0.55 0.43 0.37 0.49 0.37 0.29 0.29 0.35 0.31 0.21 0.18 0.17 0.19 0.21 0.23 0.24 0.24 0.22 0.26 0.25 0.29 0.34 0.38 0.39 0.38 0.37 0.38 0.41 0.44 0.47 0.49 0.46 0.38 0.36 0.34 0.33 0.34 0.34 0.35 0.35 0.34 0.34 0.34 0.34 0.34 0.36 0.39 0.41 0.42 0.45 0.46 0.46 0.49 0.51 0.54 0.56 0.59 0.62 0.62 0.64 0.66 0.69 0.72 0.75 0.78 0.81 0.84 0.85 0.83 0.81 0.80 0.79 0.79 0.79 0.78 0.78
0.44 0.32 0.35 0.45 0.44 0.47 0.50 0.48 0.32 0.38 0.48 0.51 0.50 0.44 0.49 0.39 0.33 0.29 0.30 0.28 0.27 0.21 0.20 0.18 0.21 0.18 0.23 0.25 0.28 0.30 0.33 0.36 0.38 0.36 0.36 0.38 0.39 0.39 0.39 0.41 0.43 0.44 0.40 0.37 0.37 0.35 0.35 0.35 0.36 0.36 0.36 0.35 0.36 0.36 0.36 0.38 0.40 0.41 0.43 0.45 0.47 0.50 0.53 0.55 0.56 0.58 0.58 0.61 0.64 0.66 0.70 0.73 0.76 0.78 0.79 0.81 0.82 0.81 0.81 0.81 0.80 0.76 0.76 0.79 0.81 0.79
0.38 0.42 0.30 0.40 0.48 0.47 0.35 0.40 0.33 0.36 0.33 0.37 0.38 0.37 0.40 0.38 0.39 0.38 0.36 0.33 0.27 0.23 0.21 0.18 0.16 0.18 0.22 0.27 0.28 0.29 0.31 0.34 0.37 0.39 0.40 0.38 0.38 0.39 0.38 0.39 0.40 0.42 0.42 0.38 0.38 0.39 0.38 0.38 0.39 0.40 0.40 0.39 0.41 0.41 0.40 0.40 0.40 0.42 0.45 0.46 0.48 0.48 0.50 0.53 0.56 0.59 0.61 0.64 0.65 0.67 0.68 0.71 0.74 0.77 0.80 0.82 0.83 0.82 0.81 0.82 0.80 0.77 0.79 0.80 0.79 0.78
0.38 0.37 0.30 0.37 0.37 0.34 0.34 0.44 0.45 0.43 0.42 0.38 0.36 0.33 0.36 0.34 0.30 0.25 0.23 0.33 0.31 0.26 0.21 0.19 0.15 0.18 0.23 0.27 0.25 0.25 0.27 0.28 0.30 0.32 0.35 0.35 0.36 0.36 0.36 0.37 0.40 0.42 0.43 0.42 0.40 0.41 0.42 0.42 0.42 0.42 0.43 0.42 0.42 0.41 0.41 0.42 0.42 0.42 0.42 0.45 0.47 0.49 0.50 0.52 0.55 0.58 0.61 0.65 0.67 0.68 0.70 0.72 0.76 0.78 0.79 0.79 0.81 0.80 0.80 0.80 0.77 0.76 0.78 0.77 0.78 0.78
0.45 0.42 0.37 0.32 0.34 0.35 0.39 0.46 0.52 0.53 0.51 0.46 0.43 0.37 0.43 0.40 0.37 0.31 0.23 0.26 0.30 0.29 0.28 0.24 0.20 0.16 0.25 0.31 0.29 0.27 0.28 0.29 0.29 0.30 0.31 0.34 0.36 0.37 0.36 0.35 0.37 0.39 0.41 0.44 0.41 0.40 0.42 0.44 0.44 0.44 0.43 0.42 0.42 0.43 0.44 0.44 0.43 0.43 0.43 0.44 0.46 0.46 0.47 0.51 0.54 0.58 0.61 0.63 0.65 0.67 0.71 0.73 0.74 0.75 0.75 0.75 0.78 0.78 0.77 0.76 0.75 0.77 0.74 0.75 0.76 0.76
0.49 0.40 0.35 0.37 0.42 0.45 0.46 0.49 0.50 0.51 0.49 0.44 0.42 0.43 0.41 0.36 0.37 0.35 0.34 0.33 0.29 0.30 0.27 0.25 0.22 0.19 0.26 0.30 0.33 0.34 0.32 0.29 0.30 0.31 0.30 0.31 0.33 0.35 0.35 0.35 0.35 0.37 0.39 0.44 0.46 0.42 0.41 0.42 0.44 0.44 0.43 0.43 0.42 0.42 0.43 0.44 0.44 0.44 0.44 0.44 0.45 0.44 0.45 0.47 0.49 0.52 0.55 0.57 0.59 0.62 0.64 0.65 0.67 0.69 0.70 0.71 0.74 0.74 0.71 0.73 0.76 0.75 0.74 0.76 0.75 0.71
0.38 0.40 0.37 0.31 0.32 0.34 0.37 0.40 0.40 0.45 0.44 0.38 0.36 0.40 0.41 0.42 0.42 0.41 0.40 0.38 0.30 0.28 0.28 0.27 0.20 0.18 0.28 0.34 0.35 0.36 0.32 0.29 0.28 0.29 0.31 0.29 0.30 0.31 0.32 0.33 0.34 0.35 0.38 0.42 0.45 0.45 0.42 0.40 0.40 0.40 0.42 0.43 0.44 0.45 0.45 0.45 0.45 0.45 0.43 0.44 0.43 0.44 0.46 0.47 0.49 0.50 0.51 0.53 0.53 0.56 0.58 0.59 0.62 0.64 0.66 0.68 0.67 0.68 0.73 0.76 0.76 0.73 0.73 0.72 0.71 0.71
0.42 0.39 0.36 0.28 0.23 0.20 0.19 0.19 0.21 0.25 0.30 0.36 0.40 0.41 0.42 0.39 0.39 0.38 0.32 0.33 0.28 0.29 0.30 0.26 0.21 0.23 0.27 0.29 0.29 0.31 0.34 0.30 0.30 0.29 0.28 0.29 0.29 0.29 0.30 0.31 0.33 0.34 0.36 0.39 0.44 0.46 0.43 0.41 0.40 0.41 0.41 0.42 0.44 0.45 0.45 0.46 0.46 0.46 0.46 0.45 0.46 0.45 0.46 0.47 0.49 0.50 0.50 0.52 0.52 0.53 0.55 0.57 0.60 0.63 0.64 0.65 0.68 0.71 0.76 0.77 0.72 0.71 0.72 0.73 0.72 0.70
0.43 0.43 0.40 0.34 0.27 0.22 0.21 0.23 0.30 0.33 0.34 0.29 0.31 0.35 0.36 0.39 0.39 0.38 0.37 0.33 0.25 0.24 0.25 0.24 0.22 0.21 0.25 0.27 0.29 0.31 0.33 0.32 0.32 0.30 0.30 0.29 0.29 0.30 0.30 0.31 0.32 0.33 0.35 0.37 0.41 0.45 0.46 0.43 0.40 0.40 0.41 0.42 0.43 0.44 0.45 0.46 0.46 0.46 0.46 0.45 0.46 0.47 0.48 0.48 0.49 0.50 0.51 0.52 0.54 0.54 0.56 0.58 0.60 0.63 0.64 0.66 0.68 0.71 0.72 0.71 0.71 0.71 0.72 0.73 0.73 0.68
0.44 0.38 0.37 0.36 0.34 0.33 0.34 0.32 0.34 0.35 0.30 0.31 0.32 0.34 0.38 0.39 0.38 0.36 0.32 0.25 0.30 0.30 0.25 0.25 0.27 0.26 0.24 0.29 0.31 0.32 0.33 0.35 0.34 0.32 0.32 0.29 0.29 0.30 0.31 0.32 0.32 0.32 0.33 0.35 0.37 0.40 0.41 0.42 0.41 0.40 0.40 0.41 0.42 0.44 0.45 0.46 0.47 0.47 0.47 0.46 0.47 0.48 0.49 0.50 0.50 0.51 0.52 0.53 0.54 0.56 0.57 0.59 0.62 0.65 0.67 0.67 0.68 0.69 0.70 0.70 0.71 0.73 0.74 0.73 0.67 0.59
0.40 0.34 0.38 0.39 0.37 0.38 0.38 0.36 0.36 0.34 0.32 0.32 0.32 0.32 0.33 0.36 0.37 0.33 0.30 0.33 0.34 0.28 0.20 0.25 0.31 0.28 0.26 0.32 0.34 0.37 0.39 0.38 0.36 0.37 0.36 0.34 0.31 0.31 0.32 0.31 0.32 0.31 0.31 0.32 0.33 0.37 0.39 0.39 0.40 0.40 0.39 0.40 0.41 0.41 0.42 0.44 0.46 0.48 0.48 0.50 0.50 0.49 0.50 0.52 0.53 0.53 0.54 0.55 0.56 0.56 0.58 0.61 0.62 0.64 0.65 0.66 0.67 0.69 0.70 0.71 0.73 0.73 0.72 0.67 0.59 0.56
0.44 0.39 0.41 0.41 0.38 0.37 0.37 0.36 0.36 0.33 0.33 0.33 0.32 0.33 0.34 0.34 0.34 0.33 0.32 0.34 0.34 0.30 0.31 0.32 0.31 0.30 0.32 0.34 0.37 0.39 0.43 0.43 0.41 0.40 0.40 0.40 0.35 0.34 0.32 0.32 0.31 0.31 0.32 0.32 0.33 0.34 0.36 0.38 0.39 0.40 0.40 0.40 0.40 0.40 0.41 0.43 0.44 0.46 0.48 0.49 0.51 0.51 0.53 0.54 0.54 0.55 0.56 0.57 0.58 0.61 0.62 0.63 0.65 0.66 0.67 0.69 0.69 0.70 0.71 0.71 0.71 0.69 0.64 0.58 0.55 0.54
0.43 0.35 0.42 0.41 0.36 0.34 0.36 0.37 0.36 0.34 0.34 0.31 0.33 0.33 0.33 0.32 0.33 0.33 0.34 0.35 0.35 0.33 0.32 0.33 0.32 0.28 0.34 0.40 0.36 0.38 0.41 0.44 0.45 0.43 0.40 0.40 0.40 0.40 0.35 0.32 0.32 0.31 0.31 0.33 0.34 0.35 0.36 0.37 0.39 0.40 0.40 0.40 0.41 0.41 0.42 0.43 0.45 0.47 0.48 0.50 0.52 0.53 0.54 0.55 0.55 0.57 0.58 0.59 0.61 0.62 0.64 0.64 0.64 0.66 0.66 0.67 0.68 0.68 0.68 0.68 0.67 0.63 0.57 0.55 0.54 0.52
0.46 0.39 0.42 0.39 0.33 0.31 0.35 0.34 0.34 0.35 0.34 0.31 0.30 0.30 0.29 0.29 0.28 0.30 0.30 0.33 0.33 0.28 0.31 0.33 0.29 0.24 0.29 0.39 0.43 0.43 0.40 0.40 0.40 0.41 0.43 0.44 0.42 0.40 0.39 0.35 0.33 0.33 0.33 0.34 0.35 0.35 0.36 0.36 0.37 0.38 0.38 0.40 0.41 0.42 0.43 0.43 0.45 0.47 0.48 0.51 0.52 0.55 0.57 0.56 0.55 0.55 0.56 0.58 0.59 0.60 0.61 0.62 0.63 0.64 0.64 0.65 0.66 0.67 0.68 0.66 0.62 0.56 0.54 0.53 0.51 0.48
0.44 0.39 0.36 0.36 0.31 0.29 0.34 0.36 0.33 0.33 0.31 0.26 0.24 0.24 0.27 0.31 0.32 0.33 0.34 0.35 0.34 0.34 0.33 0.27 0.22 0.28 0.35 0.38 0.37 0.38 0.41 0.41 0.40 0.41 0.42 0.44 0.46 0.44 0.40 0.37 0.35 0.35 0.36 0.37 0.37 0.36 0.36 0.36 0.37 0.38 0.39 0.40 0.41 0.42 0.44 0.46 0.46 0.46 0.49 0.51 0.54 0.55 0.56 0.55 0.55 0.55 0.55 0.56 0.58 0.59 0.61 0.62 0.62 0.63 0.64 0.65 0.66 0.66 0.64 0.60 0.55 0.53 0.52 0.51 0.49 0.47
0.43 0.40 0.37 0.38 0.29 0.30 0.34 0.34 0.34 0.29 0.21 0.17 0.21 0.27 0.29 0.26 0.27 0.26 0.25 0.28 0.32 0.34 0.28 0.29 0.29 0.33 0.34 0.34 0.34 0.35 0.36 0.37 0.39 0.42 0.45 0.45 0.44 0.44 0.45 0.42 0.38 0.35 0.35 0.37 0.40 0.39 0.38 0.38 0.37 0.38 0.39 0.40 0.41 0.43 0.46 0.47 0.47 0.49 0.51 0.53 0.54 0.54 0.55 0.56 0.56 0.56 0.56 0.58 0.60 0.62 0.63 0.63 0.63 0.63 0.64 0.64 0.63 0.61 0.58 0.55 0.53 0.52 0.52 0.50 0.48 0.45
0.37 0.38 0.37 0.37 0.30 0.29 0.32 0.32 0.27 0.21 0.17 0.20 0.27 0.27 0.29 0.27 0.27 0.26 0.26 0.30 0.30 0.32 0.32 0.31 0.31 0.33 0.34 0.35 0.36 0.37 0.37 0.38 0.39 0.39 0.40 0.43 0.45 0.46 0.46 0.45 0.42 0.37 0.36 0.37 0.39 0.39 0.39 0.39 0.39 0.39 0.39 0.40 0.42 0.44 0.45 0.46 0.47 0.49 0.50 0.52 0.52 0.54 0.54 0.56 0.56 0.57 0.57 0.58 0.60 0.61 0.61 0.61 0.61 0.61 0.61 0.61 0.59 0.57 0.55 0.53 0.52 0.52 0.50 0.49 0.47 0.45
0.35 0.34 0.35 0.33 0.32 0.32 0.29 0.27 0.19 0.14 0.19 0.25 0.26 0.28 0.30 0.30 0.29 0.29 0.27 0.29 0.30 0.31 0.30 0.29 0.29 0.32 0.34 0.35 0.36 0.37 0.37 0.38 0.39 0.39 0.40 0.42 0.45 0.45 0.45 0.45 0.44 0.41 0.38 0.39 0.40 0.38 0.38 0.40 0.40 0.41 0.41 0.43 0.44 0.44 0.44 0.44 0.47 0.47 0.47 0.50 0.51 0.52 0.53 0.54 0.54 0.55 0.56 0.56 0.57 0.57 0.57 0.58 0.58 0.58 0.59 0.58 0.56 0.55 0.53 0.53 0.52 0.51 0.50 0.48 0.46 0.44
0.38 0.37 0.34 0.29 0.33 0.24 0.24 0.23 0.19 0.22 0.21 0.21 0.21 0.22 0.24 0.23 0.26 0.25 0.20 0.21 0.29 0.30 0.31 0.29 0.29 0.32 0.32 0.34 0.35 0.36 0.38 0.38 0.35 0.35 0.40 0.42 0.44 0.45 0.46 0.46 0.46 0.44 0.42 0.42 0.43 0.41 0.42 0.44 0.44 0.45 0.46 0.46 0.46 0.46 0.46 0.47 0.48 0.47 0.47 0.47 0.48 0.50 0.51 0.51 0.51 0.52 0.54 0.55 0.55 0.55 0.56 0.56 0.56 0.56 0.57 0.56 0.55 0.54 0.53 0.52 0.52 0.50 0.49 0.47 0.45 0.44
0.42 0.34 0.34 0.29 0.29 0.30 0.24 0.22 0.21 0.18 0.13 0.12 0.21 0.25 0.30 0.30 0.31 0.31 0.26 0.20 0.27 0.30 0.32 0.30 0.28 0.30 0.31 0.33 0.34 0.35 0.36 0.32 0.28 0.31 0.38 0.41 0.42 0.42 0.45 0.47 0.48 0.47 0.45 0.44 0.45 0.45 0.45 0.45 0.47 0.49 0.49 0.48 0.47 0.48 0.49 0.49 0.49 0.48 0.47 0.47 0.48 0.49 0.49 0.50 0.50 0.53 0.54 0.55 0.56 0.56 0.57 0.57 0.57 0.56 0.56 0.55 0.54 0.54 0.54 0.53 0.52 0.50 0.49 0.46 0.45 0.44
0.41 0.39 0.35 0.30 0.26 0.26 0.24 0.19 0.17 0.13 0.12 0.19 0.21 0.26 0.29 0.31 0.31 0.32 0.26 0.17 0.23 0.29 0.29 0.30 0.29 0.30 0.31 0.30 0.31 0.34 0.31 0.26 0.25 0.30 0.36 0.38 0.38 0.41 0.42 0.44 0.46 0.46 0.46 0.46 0.45 0.44 0.44 0.46 0.48 0.50 0.51 0.50 0.49 0.50 0.51 0.51 0.51 0.49 0.48 0.48 0.49 0.50 0.50 0.50 0.51 0.53 0.54 0.55 0.57 0.58 0.58 0.58 0.58 0.57 0.57 0.56 0.56 0.55 0.54 0.53 0.52 0.51 0.50 0.48 0.47 0.46
0.36 0.36 0.34 0.29 0.25 0.23 0.21 0.19 0.16 0.17 0.14 0.21 0.25 0.27 0.30 0.32 0.33 0.27 0.17 0.14 0.22 0.25 0.27 0.29 0.28 0.29 0.30 0.31 0.33 0.31 0.29 0.25 0.26 0.30 0.35 0.37 0.38 0.40 0.41 0.41 0.42 0.43 0.45 0.46 0.46 0.47 0.47 0.48 0.49 0.50 0.50 0.49 0.50 0.53 0.54 0.54 0.53 0.52 0.52 0.52 0.52 0.51 0.52 0.53 0.56 0.58 0.60 0.60 0.60 0.60 0.60 0.59 0.59 0.59 0.58 0.58 0.57 0.57 0.56 0.55 0.53 0.51 0.50 0.48 0.47 0.46
0.33 0.33 0.32 0.25 0.23 0.23 0.23 0.20 0.20 0.19 0.22 0.25 0.26 0.29 0.31 0.33 0.28 0.19 0.12 0.19 0.23 0.27 0.28 0.30 0.29 0.30 0.31 0.31 0.32 0.28 0.31 0.31 0.31 0.34 0.37 0.38 0.37 0.38 0.40 0.42 0.42 0.43 0.43 0.43 0.44 0.46 0.46 0.47 0.48 0.48 0.49 0.51 0.53 0.54 0.54 0.54 0.53 0.51 0.52 0.53 0.52 0.50 0.52 0.56 0.58 0.59 0.59 0.60 0.60 0.60 0.60 0.60 0.60 0.60 0.60 0.59 0.58 0.58 0.56 0.55 0.53 0.51 0.49 0.48 0.47 0.46
0.30 0.29 0.29 0.29 0.25 0.22 0.21 0.19 0.17 0.18 0.21 0.26 0.30 0.30 0.32 0.26 0.17 0.13 0.19 0.29 0.28 0.28 0.31 0.30 0.29 0.30 0.31 0.30 0.30 0.30 0.31 0.33 0.36 0.37 0.36 0.37 0.38 0.39 0.40 0.41 0.42 0.44 0.46 0.47 0.48 0.48 0.48 0.49 0.50 0.52 0.53 0.54 0.55 0.55 0.56 0.55 0.53 0.53 0.53 0.53 0.51 0.53 0.56 0.57 0.58 0.58 0.59 0.58 0.59 0.59 0.59 0.60 0.60 0.60 0.60 0.59 0.58 0.57 0.56 0.55 0.53 0.51 0.49 0.48 0.47 0.45
0.24 0.24 0.23 0.23 0.25 0.26 0.24 0.19 0.18 0.12 0.15 0.27 0.28 0.29 0.31 0.19 0.18 0.25 0.28 0.30 0.32 0.30 0.30 0.31 0.29 0.31 0.30 0.29 0.31 0.32 0.33 0.35 0.36 0.36 0.37 0.38 0.38 0.38 0.40 0.41 0.42 0.43 0.44 0.45 0.46 0.48 0.48 0.48 0.48 0.49 0.50 0.52 0.54 0.55 0.55 0.55 0.53 0.53 0.53 0.52 0.54 0.57 0.58 0.58 0.58 0.58 0.58 0.58 0.58 0.59 0.59 0.59 0.60 0.59 0.59 0.58 0.58 0.56 0.55 0.54 0.52 0.50 0.48 0.47 0.46 0.45
0.30 0.25 0.23 0.24 0.25 0.18 0.18 0.16 0.14 0.16 0.24 0.27 0.25 0.20 0.24 0.26 0.29 0.29 0.29 0.28 0.33 0.32 0.31 0.31 0.31 0.32 0.33 0.32 0.32 0.33 0.34 0.35 0.37 0.38 0.39 0.39 0.40 0.40 0.41 0.42 0.43 0.44 0.45 0.46 0.47 0.48 0.48 0.47 0.47 0.48 0.49 0.50 0.52 0.52 0.53 0.52 0.51 0.51 0.51 0.52 0.56 0.57 0.57 0.57 0.57 0.57 0.57 0.57 0.57 0.58 0.58 0.58 0.58 0.58 0.58 0.57 0.57 0.55 0.54 0.52 0.50 0.49 0.48 0.46 0.45 0.44
0.30 0.23 0.23 0.20 0.26 0.23 0.18 0.18 0.23 0.26 0.26 0.30 0.28 0.27 0.28 0.30 0.31 0.32 0.31 0.31 0.31 0.32 0.34 0.32 0.32 0.34 0.34 0.34 0.33 0.34 0.34 0.35 0.35 0.37 0.38 0.39 0.41 0.41 0.41 0.42 0.42 0.43 0.44 0.44 0.45 0.47 0.47 0.46 0.46 0.47 0.48 0.50 0.51 0.52 0.53 0.53 0.51 0.50 0.50 0.53 0.55 0.56 0.56 0.56 0.56 0.56 0.55 0.56 0.56 0.56 0.57 0.57 0.57 0.56 0.56 0.56 0.55 0.54 0.52 0.50 0.49 0.47 0.46 0.45 0.44 0.43
0.31 0.33 0.32 0.29 0.27 0.29 0.29 0.29 0.29 0.29 0.28 0.28 0.32 0.31 0.30 0.31 0.33 0.33 0.33 0.33 0.34 0.35 0.35 0.32 0.32 0.31 0.33 0.34 0.33 0.34 0.34 0.34 0.35 0.36 0.37 0.38 0.40 0.41 0.43 0.43 0.44 0.45 0.45 0.46 0.46 0.46 0.47 0.48 0.48 0.48 0.48 0.49 0.51 0.52 0.53 0.53 0.53 0.50 0.52 0.54 0.55 0.55 0.55 0.55 0.55 0.54 0.55 0.55 0.56 0.56 0.56 0.56 0.56 0.56 0.56 0.55 0.55 0.53 0.52 0.50 0.48 0.46 0.45 0.43 0.42 0.41
0.32 0.33 0.31 0.27 0.29 0.27 0.21 0.25 0.26 0.27 0.29 0.30 0.29 0.32 0.33 0.33 0.33 0.35 0.35 0.36 0.37 0.37 0.35 0.37 0.36 0.35 0.34 0.34 0.32 0.31 0.31 0.33 0.31 0.33 0.33 0.35 0.36 0.37 0.38 0.40 0.41 0.43 0.43 0.43 0.45 0.45 0.45 0.46 0.45 0.45 0.46 0.47 0.50 0.51 0.52 0.53 0.54 0.54 0.55 0.55 0.55 0.56 0.55 0.54 0.54 0.53 0.53 0.53 0.53 0.53 0.54 0.53 0.53 0.53 0.53 0.53 0.52 0.51 0.49 0.47 0.45 0.43 0.42 0.41 0.41 0.40
0.26 0.34 0.30 0.29 0.27 0.24 0.18 0.23 0.27 0.29 0.30 0.31 0.31 0.30 0.30 0.32 0.34 0.36 0.38 0.39 0.39 0.39 0.38 0.39 0.39 0.37 0.37 0.34 0.33 0.32 0.31 0.32 0.31 0.30 0.31 0.31 0.32 0.33 0.34 0.35 0.36 0.37 0.39 0.40 0.42 0.43 0.43 0.43 0.43 0.43 0.44 0.45 0.47 0.49 0.50 0.50 0.51 0.52 0.52 0.53 0.53 0.53 0.53 0.52 0.52 0.51 0.51 0.51 0.51 0.51 0.51 0.51 0.51 0.51 0.50 0.50 0.50 0.48 0.47 0.45 0.44 0.42 0.42 0.42 0.42 0.41
0.29 0.33 0.25 0.27 0.24 0.25 0.26 0.27 0.28 0.30 0.30 0.31 0.33 0.34 0.34 0.34 0.34 0.36 0.38 0.39 0.39 0.38 0.39 0.40 0.40 0.39 0.38 0.35 0.35 0.34 0.32 0.32 0.32 0.32 0.32 0.32 0.32 0.33 0.34 0.36 0.36 0.37 0.38 0.38 0.40 0.41 0.41 0.42 0.43 0.43 0.44 0.44 0.46 0.47 0.47 0.47 0.49 0.50 0.51 0.51 0.52 0.52 0.51 0.51 0.51 0.51 0.51 0.51 0.50 0.50 0.51 0.50 0.50 0.50 0.50 0.50 0.49 0.48 0.48 0.46 0.45 0.45 0.44 0.44 0.43 0.42
0.31 0.25 0.26 0.26 0.23 0.21 0.19 0.21 0.27 0.23 0.23 0.27 0.31 0.32 0.33 0.35 0.36 0.36 0.38 0.38 0.38 0.38 0.39 0.38 0.39 0.40 0.39 0.38 0.36 0.35 0.33 0.33 0.34 0.34 0.33 0.34 0.35 0.36 0.37 0.39 0.40 0.40 0.41 0.42 0.43 0.44 0.44 0.45 0.45 0.45 0.46 0.46 0.47 0.47 0.46 0.46 0.47 0.49 0.50 0.51 0.51 0.51 0.50 0.50 0.50 0.50 0.51 0.51 0.51 0.51 0.52 0.52 0.52 0.52 0.52 0.51 0.51 0.50 0.49 0.49 0.48 0.47 0.45 0.44 0.45 0.45
0.25 0.24 0.26 0.23 0.21 0.18 0.23 0.28 0.28 0.26 0.25 0.27 0.28 0.32 0.34 0.36 0.37 0.37 0.37 0.38 0.39 0.40 0.40 0.39 0.38 0.38 0.38 0.38 0.38 0.37 0.36 0.35 0.35 0.36 0.35 0.36 0.37 0.39 0.40 0.41 0.41 0.41 0.42 0.43 0.43 0.44 0.44 0.45 0.47 0.47 0.48 0.48 0.49 0.49 0.49 0.49 0.50 0.50 0.51 0.52 0.52 0.52 0.51 0.51 0.50 0.50 0.50 0.50 0.50 0.51 0.51 0.51 0.51 0.52 0.52 0.52 0.51 0.51 0.49 0.49 0.49 0.49 0.48 0.47 0.46 0.45
Wind_Speed
33 32 34 34 32 31 30 29 27 26 25 24 23 23 23 23 22 21 20 21 20 21 26 27 28 29 29 29 30 28 26 27 27 26 27 28 27 27 27 27 28 28 27 27 28 28 27 28 28 28 28 28 28 28 28 28 28 28 27 27 26 26 25 25 24 23 23 22 21 21 21 20 20 19 19 19 18 18 18 18 18 18 17 17 17 17
34 35 36 34 32 30 30 29 27 25 24 23 23 23 22 23 23 21 21 22 21 22 25 27 28 30 29 30 31 29 28 29 29 28 29 29 29 29 28 29 29 28 27 28 28 28 28 28 28 29 29 29 30 29 29 29 29 29 29 28 28 27 27 26 26 25 24 23 23 22 22 21 21 20 20 20 20 19 19 19 19 18 18 18 18 19
35 37 35 32 31 30 29 29 28 27 26 24 24 24 23 23 23 22 22 23 22 23 25 27 29 31 31 31 32 32 32 31 31 30 30 30 30 30 30 29 29 29 28 29 29 28 29 29 29 29 30 30 30 30 30 30 30 30 30 30 29 28 28 28 27 26 25 25 24 23 23 22 21 21 21 21 21 20 20 19 19 19 19 19 19 20
37 36 34 31 30 30 29 29 29 28 28 27 26 25 25 24 23 23 23 23 23 24 26 26 29 32 32 32 33 33 34 34 33 32 32 31 30 31 30 30 29 30 30 29 29 29 29 30 30 30 30 30 31 31 31 31 31 31 31 31 31 30 29 29 28 27 27 26 25 24 24 23 22 22 22 22 21 21 21 20 20 21 21 20 20 21
35 33 33 32 30 30 29 29 29 28 28 28 28 27 26 24 24 24 23 23 23 24 25 24 28 33 32 33 34 32 33 34 33 33 33 32 32 31 31 30 30 30 30 29 29 29 29 30 30 30 31 31 31 31 31 31 31 31 32 32 31 31 30 30 29 29 28 27 26 25 24 23 23 23 22 22 22 22 21 21 21 21 22 22 22 22
35 34 33 32 31 31 30 30 30 28 28 27 27 27 26 25 24 24 23 22 22 23 24 22 25 30 29 31 34 31 31 33 33 33 34 34 33 32 32 32 31 31 30 29 29 29 30 30 31 31 31 31 31 31 31 32 32 32 32 32 32 31 31 31 30 29 29 28 27 26 25 25 24 24 24 24 23 23 22 22 22 22 22 23 23 23
35 35 34 33 32 31 31 30 30 28 27 27 27 26 25 25 24 24 23 22 23 24 23 22 24 26 27 30 31 30 32 33 32 33 34 35 33 32 33 33 33 32 31 30 29 30 30 30 31 31 31 31 31 32 32 32 32 32 32 32 32 32 31 31 31 30 30 29 28 28 27 27 26 25 25 25 24 24 23 23 23 23 23 23 24 23
36 36 34 33 32 32 32 31 29 28 26 27 27 25 25 24 24 24 22 22 23 23 24 24 23 25 28 29 29 29 32 34 34 33 33 34 34 33 33 33 33 33 32 31 30 30 31 31 31 31 32 32 32 32 32 32 32 32 32 32 32 32 32 31 31 31 31 30 30 29 29 28 27 27 27 26 26 25 24 24 24 23 24 24 24 24
35 37 35 34 32 32 31 29 28 27 26 26 25 24 24 22 23 23 22 23 23 22 25 24 22 24 27 27 25 26 31 35 36 35 34 34 35 35 34 34 34 33 32 31 31 30 31 32 32 32 32 32 32 32 32 32 32 32 32 33 33 32 32 32 32 32 32 31 31 30 30 29 29 28 28 27 27 26 26 25 25 24 24 25 25 25
34 36 35 33 32 31 29 26 27 27 25 25 24 22 21 20 21 22 23 23 22 23 26 24 23 25 28 28 25 26 30 34 35 34 34 35 36 36 35 34 34 34 33 32 32 31 31 32 33 33 32 32 32 32 32 32 32 32 32 33 33 33 33 32 32 32 32 32 32 31 31 30 30 29 28 28 27 27 27 26 26 25 25 25 25 25
33 33 33 32 31 31 28 26 27 26 26 25 23 21 20 21 21 22 23 22 22 25 25 23 24 25 27 28 27 27 28 29 31 33 34 35 36 36 36 35 34 34 34 33 32 32 32 32 32 32 33 32 32 32 32 32 32 32 32 33 33 33 33 33 33 33 33 33 32 32 31 31 31 30 29 29 28 28 28 27 27 26 26 26 26 26
32 32 33 33 32 31 28 27 26 26 27 26 25 24 21 21 21 21 22 22 23 25 23 23 23 24 29 29 25 26 26 25 29 32 33 35 37 38 37 36 35 34 34 34 34 33 33 33 33 33 33 33 32 32 32 32 32 33 33 33 33 34 33 33 33 33 33 33 33 32 32 32 31 31 30 30 29 29 29 28 28 27 27 27 27 27
33 33 34 33 33 33 30 28 26 26 28 27 26 26 22 21 21 22 23 23 26 26 24 23 22 25 32 31 27 28 27 26 27 29 31 34 36 38 37 36 35 34 35 35 35 34 34 34 34 34 34 33 33 33 33 33 33 33 33 33 34 34 34 34 34 34 34 33 33 33 33 32 32 32 32 31 31 30 30 29 29 28 28 28 28 28
32 32 34 34 33 34 33 32 30 29 29 29 28 27 24 22 22 23 24 24 26 27 25 24 23 26 30 29 28 30 28 29 29 29 31 33 35 36 37 36 35 35 35 35 35 35 35 35 35 35 35 35 35 35 34 34 34 34 34 34 34 34 34 35 35 35 35 34 34 33 33 33 33 32 32 32 32 31 31 30 30 29 29 29 29 29
34 32 36 37 34 35 34 33 31 29 28 29 28 27 27 25 24 24 24 24 25 24 25 25 24 26 26 25 26 26 26 28 29 30 31 32 34 35 35 36 36 36 35 35 35 35 35 35 35 35 35 35 36 36 36 35 35 35 35 35 35 35 34 35 35 35 35 35 34 34 34 33 33 33 33 33 32 32 32 31 31 30 30 30 30 29
35 32 34 35 33 33 33 31 29 28 28 28 28 27 29 28 25 23 24 25 23 23 24 26 28 28 27 28 29 26 25 25 26 29 30 32 34 34 35 36 37 37 36 35 35 35 34 34 35 35 35 35 35 36 36 36 36 36 35 35 35 35 35 35 35 35 35 35 35 35 34 34 34 33 33 33 33 32 32 32 31 31 30 30 30 29
34 31 30 31 32 33 32 31 31 30 29 28 29 30 29 27 25 23 24 24 23 25 27 27 30 31 28 30 32 30 29 26 25 26 27 30 33 34 35 36 36 37 36 35 35 35 34 34 34 35 35 35 35 36 37 37 37 36 36 36 36 36 35 35 35 35 35 35 35 35 35 35 34 34 34 34 33 33 32 32 31 31 31 30 30 29
33 29 28 30 32 32 30 29 31 31 29 28 30 30 27 25 25 25 24 24 24 27 27 28 31 30 27 28 28 27 28 28 26 26 25 26 27 30 34 36 36 35 35 35 35 35 35 34 34 34 34 35 35 35 36 37 37 37 36 36 36 36 36 36 36 36 36 36 36 36 36 35 35 35 35 34 34 33 32 32 32 31 31 31 30 30
31 27 27 29 30 29 27 28 30 30 30 29 29 29 27 25 26 27 25 25 26 27 27 27 29 29 29 30 27 25 27 26 26 26 25 25 25 27 31 33 35 34 34 34 34 34 34 34 34 34 35 35 34 35 35 36 36 36 36 36 36 36 36 36 36 36 36 36 36 36 36 36 35 35 35 34 34 34 33 33 32 32 32 31 31 30
30 27 27 29 29 29 28 30 32 31 29 28 27 28 28 26 26 27 27 25 25 26 27 26 26 28 31 31 29 29 30 29 28 26 26 27 27 27 27 29 31 33 34 34 33 33 34 34 34 34 34 34 34 34 34 34 35 36 36 36 36 37 37 37 37 37 37 37 37 37 36 36 36 36 35 35 35 34 34 33 33 33 33 32 31 31
29 28 27 28 29 29 30 32 33 32 30 29 29 29 29 27 25 26 27 26 24 24 26 26 26 29 30 27 27 28 28 27 27 26 26 26 26 26 26 27 28 30 33 34 35 34 34 34 35 34 34 34 33 33 33 33 34 35 36 36 36 36 37 37 37 37 37 37 37 37 37 37 37 36 36 36 35 35 35 34 34 34 33 32 32 31
29 28 28 28 29 30 30 30 30 31 31 30 30 30 30 29 26 25 26 27 26 26 25 25 28 30 29 26 26 26 25 25 25 24 25 25 25 26 26 27 27 29 31 33 34 35 35 35 35 34 34 33 33 33 33 33 33 34 35 35 36 36 36 37 37 37 38 38 38 38 38 37 37 37 36 36 36 35 35 35 35 34 33 32 32 32
28 26 26 27 28 28 27 26 27 29 30 29 29 30 29 29 28 26 25 26 26 27 26 25 27 31 30 28 28 27 26 26 26 26 26 27 26 26 26 27 28 29 30 31 32 34 35 35 35 35 34 34 33 33 33 33 34 34 35 35 35 36 36 37 37 37 37 37 38 38 37 37 37 37 37 36 36 36 36 35 35 34 33 33 33 33
28 26 25 24 24 24 23 22 24 25 28 30 30 29 28 30 29 26 24 24 25 27 27 25 27 32 31 28 27 27 26 26 25 26 27 27 27 27 27 27 28 29 30 30 31 32 33 34 34 34 34 34 34 34 34 34 34 35 35 35 36 36 36 37 37 37 37 37 37 37 37 37 37 37 36 36 36 36 36 35 35 34 33 33 33 32
28 27 26 23 22 22 21 21 24 26 29 31 30 29 29 29 27 26 25 24 24 27 27 25 28 32 30 26 25 25 25 24 23 24 25 25 25 26 26 26 26 28 28 29 30 31 31 32 32 33 34 34 35 35 35 35 35 35 35 36 36 36 36 36 36 37 37 37 37 37 37 37 36 36 36 36 36 36 35 35 34 34 33 33 32 31
28 28 27 25 24 24 24 24 26 27 27 27 28 29 29 28 28 27 25 23 25 27 26 26 30 30 28 27 25 23 22 23 23 24 23 23 24 24 25 25 25 26 27 28 29 30 31 32 32 32 33 34 34 35 35 36 36 36 36 36 36 36 36 36 36 37 37 37 37 37 37 37 36 36 35 35 35 34 34 34 33 33 33 32 31 30
27 28 29 29 28 27 26 24 22 22 24 27 28 29 30 30 30 29 26 28 29 26 26 32 33 30 29 29 28 25 23 24 26 26 24 23 23 23 22 22 22 23 25 26 27 29 30 31 32 32 33 33 34 34 34 35 35 35 35 35 35 35 35 35 36 36 36 37 37 36 36 36 35 35 34 34 33 33 33 33 33 32 32 31 31 30
28 30 31 30 28 26 24 23 22 22 25 28 28 29 31 31 31 31 32 33 28 23 28 33 31 31 32 30 30 30 27 25 26 27 26 24 24 23 22 21 21 22 23 24 25 27 29 30 31 32 32 33 33 33 33 34 34 34 35 35 35 35 35 35 35 35 35 35 35 35 35 35 34 34 33 33 33 32 32 32 32 32 31 31 30 30
28 30 30 28 26 23 22 23 23 22 23 24 26 29 30 30 32 34 35 33 27 27 32 29 26 32 33 29 31 33 31 28 27 27 28 26 26 25 23 22 22 22 22 23 24 26 27 29 29 30 31 31 32 32 33 33 33 33 34 34 34 34 34 34 34 34 34 34 34 34 34 33 33 33 33 32 32 32 32 32 31 31 31 30 30 30
28 28 27 26 25 22 21 22 22 21 20 22 26 28 28 30 33 34 35 33 30 33 34 28 27 32 31 27 29 30 30 31 28 27 29 29 28 27 25 25 25 24 24 24 24 25 26 27 28 29 30 30 30 31 31 32 33 33 33 33 33 33 34 34 34 33 33 33 33 33 33 32 32 32 32 31 31 31 31 31 30 30 30 30 30 30
28 27 26 25 24 21 21 21 20 20 21 22 25 27 28 30 32 33 34 32 33 35 33 29 31 33 29 26 28 28 28 29 28 30 31 30 30 29 28 28 28 28 27 26 25 25 26 26 28 28 29 30 31 30 30 31 31 32 32 33 33 33 33 33 33 33 33 33 33 32 32 32 32 32 31 31 31 30 30 30 30 30 30 30 30 30
29 27 25 24 24 23 22 20 19 19 20 22 27 29 30 30 30 31 31 30 32 33 30 29 33 32 26 24 27 30 31 30 30 31 32 31 31 30 30 31 31 31 31 30 28 27 26 27 28 28 30 31 31 31 30 30 30 31 31 32 32 32 32 33 33 33 33 33 32 32 32 32 32 31 31 31 30 30 30 30 30 30 30 30 30 30
30 28 25 24 24 23 23 21 19 17 17 22 28 29 29 29 28 28 29 30 31 30 28 30 31 26 23 23 26 28 30 31 32 32 33 34 33 32 33 33 33 33 32 32 32 30 29 28 28 29 30 31 31 32 31 31 31 31 31 31 31 31 31 32 32 32 32 32 32 32 31 31 31 31 30 30 30 30 30 30 30 30 30 30 30 30
30 28 26 25 24 23 23 21 18 16 19 23 25 24 27 29 30 30 31 31 30 29 29 30 28 23 22 24 25 25 27 29 31 32 33 35 35 35 35 35 35 34 33 32 33 32 31 30 30 30 31 31 31 32 31 32 32 31 31 31 31 31 31 31 31 31 31 31 31 31 31 31 30 30 30 30 30 30 30 30 30 30 30 30 30 30
31 29 26 24 22 22 22 20 18 20 24 24 21 21 25 27 29 31 31 30 30 31 32 32 30 26 24 24 24 26 27 29 30 30 31 33 34 35 35 35 35 35 34 33 32 32 32 31 30 30 30 30 30 30 31 32 32 31 32 31 31 31 31 31 31 31 31 31 30 30 30 30 30 30 30 30 30 30 30 30 30 30 31 31 31 31
33 31 27 24 23 22 22 23 23 24 25 24 22 23 23 22 23 26 29 30 31 31 32 33 32 29 26 26 26 27 27 27 28 29 29 30 31 33 35 35 35 35 35 34 33 32 31 30 29 30 30 30 30 30 31 31 31 31 31 32 32 31 31 31 31 31 31 31 30 30 30 30 30 30 30 30 30 31 31 31 31 31 31 32 32 32
34 33 30 27 25 24 25 27 26 23 24 26 26 26 24 22 21 23 26 28 28 28 30 31 31 30 28 28 29 28 26 26 26 27 28 28 29 31 34 35 36 36 36 34 33 32 31 30 30 30 30 30 30 30 31 31 31 31 31 31 32 31 31 31 32 32 32 31 31 31 31 31 31 31 31 32 32 32 32 32 32 32 32 33 33 33
33 33 32 30 27 25 24 25 25 24 25 26 26 26 25 24 23 22 24 27 26 26 29 29 29 29 27 27 28 26 24 25 26 26 26 27 28 29 31 33 34 35 35 33 32 32 31 31 31 30 30 30 30 31 31 31 31 31 31 31 32 32 32 32 32 32 32 32 32 32 32 33 33 33 33 33 33 33 33 33 33 33 34 34 34 34
32 32 31 30 28 28 28 26 26 27 28 25 23 24 24 23 21 19 22 26 26 26 29 30 29 28 27 27 26 23 23 26 26 24 24 26 27 27 28 29 31 32 33 33 33 33 33 32 31 30 30 30 30 30 30 31 31 31 31 32 32 32 33 33 32 32 33 33 33 33 33 33 33 33 33 33 34 34 34 34 34 34 35 35 35 35
33 33 32 32 31 30 30 28 27 29 29 27 25 25 23 21 18 16 20 24 23 21 23 24 25 27 27 26 24 22 24 27 27 25 25 25 25 25 26 26 27 29 30 31 32 32 32 31 30 30 30 30 29 29 30 30 31 32 32 32 32 33 34 34 34 33 34 34 34 34 34 34 34 34 34 34 34 34 34 35 35 35 35 35 36 36
33 34 34 34 33 30 29 29 29 29 30 29 27 26 22 19 19 21 22 21 18 17 17 18 20 23 23 22 21 23 26 29 28 26 24 23 23 23 23 23 24 25 26 27 27 28 28 28 28 28 29 29 29 29 29 30 30 31 32 32 33 34 34 34 34 34 34 34 34 35 35 35 35 35 34 34 34 34 35 35 35 36 36 36 36 36
34 34 34 34 32 30 30 29 28 29 31 28 25 25 24 23 24 26 23 19 17 19 19 18 21 22 22 22 24 26 28 28 28 26 24 23 23 22 22 22 22 22 22 23 24 24 24 25 25 26 27 28 28 29 29 29 30 30 31 31 32 33 33 33 34 34 34 34 34 34 35 35 35 35 35 35 35 35 36 36 36 36 36 36 36 36
36 34 34 34 32 29 28 28 26 28 29 26 23 24 26 25 25 23 19 17 18 19 20 20 21 22 23 24 26 27 26 25 26 26 25 24 23 22 22 22 21 21 21 21 22 22 23 23 23 24 25 26 27 27 28 28 29 29 30 30 31 31 31 32 33 33 33 34 34 34 34 34 35 35 35 35 36 36 36 36 36 37 37 37 37 36
35 35 34 34 33 30 30 30 28 26 25 24 23 24 26 26 23 21 20 19 19 19 20 21 22 22 22 22 23 23 24 23 24 24 24 23 23 22 22 21 21 21 22 21 22 22 22 22 22 22 23 24 25 26 27 27 28 28 29 29 29 30 30 31 31 32 32 33 33 33 34 34 34 35 35 35 36 36 36 37 37 37 37 37 37 37
37 37 34 32 33 32 31 30 28 26 25 26 24 23 25 26 23 21 20 21 20 21 20 20 20 21 20 20 20 20 21 21 22 21 21 22 22 21 21 21 20 20 20 20 20 20 20 20 20 20 21 22 23 24 25 26 26 27 27 28 28 28 29 29 30 31 32 32 33 33 34 34 34 35 35 36 36 37 37 37 37 37 37 37 37 37
34 34 32 30 31 31 31 30 28 27 27 28 26 24 25 26 23 20 20 20 20 21 20 18 18 18 17 17 18 18 18 19 19 20 20 20 20 20 20 20 19 19 19 19 19 19 19 19 19 19 20 20 21 22 23 24 25 25 26 26 27 27 28 29 29 30 31 32 33 33 34 34 35 35 36 36 37 37 37 37 37 37 37 37 37 37
31 32 32 31 30 31 32 31 29 29 30 31 30 27 26 26 23 20 20 20 20 19 19 19 18 18 18 18 18 18 18 18 18 18 19 19 19 19 19 18 18 18 18 18 18 18 18 18 19 19 19 20 21 21 22 23 23 24 24 25 25 26 27 27 28 29 30 31 31 32 33 33 34 35 35 36 36 37 37 38 38 38 38 38 38 37
32 32 32 32 32 32 32 30 29 30 31 32 32 30 28 28 27 24 22 22 21 20 21 21 20 19 19 19 19 19 19 19 19 19 19 19 19 19 19 19 19 18 18 19 19 19 19 19 19 20 20 20 21 21 22 22 23 24 24 25 25 26 26 27 28 28 29 30 30 31 32 33 34 34 35 36 36 37 38 38 38 39 39 39 38 38
30 32 32 32 32 32 32 30 29 29 30 31 32 31 30 29 29 28 26 24 23 23 23 23 23 22 21 21 21 20 21 21 21 20 20 20 20 20 20 20 20 20 20 20 20 20 20 21 21 21 21 22 22 22 23 23 24 25 25 26 26 27 27 28 28 29 30 30 31 32 33 34 34 35 36 36 37 37 38 38 39 39 39 39 39 38
31 33 32 31 33 34 33 31 29 28 28 30 31 31 30 29 28 28 28 27 27 26 25 25 24 24 23 23 22 22 22 22 22 21 21 21 21 21 22 22 21 21 21 21 21 21 21 22 22 22 22 23 23 24 24 25 26 26 27 27 28 28 28 29 29 29 30 30 31 32 32 33 34 34 35 36 36 37 37 38 38 38 38 38 38 38
34 34 33 32 34 34 31 29 30 29 28 28 30 31 31 29 28 29 29 29 29 28 27 27 26 26 25 24 23 23 23 22 22 22 22 22 22 22 22 22 22 22 22 22 22 22 22 22 23 23 23 24 24 25 25 25 26 27 27 27 28 28 29 29 29 29 30 30 30 31 31 32 32 33 34 35 35 36 36 37 37 37 38 38 38 38
Wind_Direction
216 219 222 223 223 222 224 226 229 231 231 230 233 236 236 236 240 241 244 249 249 248 244 241 242 244 243 240 239 237 234 234 235 234 234 235 234 234 233 233 233 233 234 236 236 235 234 233 233 232 232 233 233 233 233 233 233 233 233 233 234 234 235 236 237 238 239 239 240 241 242 244 245 246 248 249 250 252 253 254 255 256 259 263 265 267
218 221 224 223 221 220 223 225 227 230 231 231 232 233 234 234 239 241 244 250 252 250 247 245 246 246 244 242 240 237 233 234 235 234 235 235 235 235 234 234 234 234 236 238 238 236 235 234 234 233 233 233 234 234 234 234 234 235 235 235 235 236 236 237 238 239 240 241 242 243 244 245 246 247 249 250 251 252 254 255 256 257 260 264 266 268
220 223 222 220 220 219 223 225 225 228 229 231 233 233 234 235 241 245 247 252 252 251 251 249 248 247 246 244 241 238 234 235 236 235 236 236 235 235 235 235 235 235 237 238 238 237 236 235 235 234 234 234 235 235 235 235 236 236 236 236 236 237 237 238 239 240 241 242 243 244 246 246 248 249 249 251 252 253 256 258 259 260 261 264 267 269
221 223 220 218 218 218 222 224 225 228 231 233 233 234 238 238 242 246 248 252 253 253 252 251 251 250 248 246 243 239 236 236 237 237 237 237 236 235 236 236 236 236 237 239 239 237 237 236 236 235 235 235 236 236 237 236 237 236 236 236 236 237 237 239 240 241 242 243 244 245 247 247 249 250 251 252 253 254 257 259 260 261 263 265 267 269
222 222 217 217 219 218 222 225 225 229 233 235 235 236 239 239 242 246 248 251 253 255 253 252 254 252 248 246 244 240 237 237 237 236 238 238 237 237 237 237 236 236 237 239 239 238 237 236 236 236 236 236 236 237 237 237 237 237 237 237 237 237 238 239 240 241 243 243 244 245 246 247 248 250 251 252 253 255 257 259 260 261 263 265 267 269
222 221 216 216 220 219 222 226 226 228 232 236 237 236 237 238 241 246 249 251 252 254 254 252 254 253 248 246 243 240 238 238 236 235 237 238 237 237 237 237 237 237 238 239 240 239 238 237 237 237 237 237 237 237 238 237 238 238 238 237 237 238 238 239 240 241 242 243 243 244 244 245 247 249 250 251 253 255 257 259 261 263 264 265 268 270
221 222 219 217 219 220 222 226 227 227 230 235 236 233 234 236 239 244 246 248 247 249 253 251 252 255 254 250 246 242 241 241 238 236 237 238 237 236 237 237 238 238 239 240 241 239 238 237 237 237 237 237 237 238 238 238 238 238 238 238 238 239 239 240 240 241 242 242 243 243 244 245 247 249 251 252 254 256 258 261 263 264 265 267 269 271
218 219 220 217 218 221 223 226 226 225 228 235 234 230 232 234 237 240 242 244 246 251 255 250 250 257 257 251 248 244 242 242 240 238 238 238 238 237 237 238 238 238 239 239 240 240 239 238 237 237 237 237 238 238 239 238 238 237 238 238 238 239 240 240 241 241 242 242 243 243 245 246 247 249 252 254 256 258 260 262 264 265 267 268 270 271
218 217 219 217 218 222 226 227 224 223 228 235 233 230 233 235 237 240 241 244 248 252 254 249 248 256 256 251 249 246 244 243 241 239 238 238 239 238 238 239 239 239 239 239 239 240 239 238 237 237 238 239 239 239 239 239 238 238 238 238 239 239 240 241 242 242 242 243 243 244 245 247 248 250 253 255 258 259 261 262 264 266 267 268 269 270
221 220 219 218 220 224 226 225 222 224 230 232 229 230 234 237 239 240 242 245 248 250 250 245 244 253 257 253 249 248 247 244 242 241 239 239 240 240 239 240 240 239 239 239 239 240 240 239 238 238 239 240 241 240 240 239 239 238 238 238 239 239 240 241 242 242 243 243 244 245 246 247 248 250 253 255 258 260 261 262 264 265 267 269 269 269
221 220 221 222 223 224 223 224 223 223 224 224 225 229 233 238 240 241 242 243 245 249 249 243 240 249 258 253 246 248 250 247 244 242 241 241 241 242 240 240 240 240 239 239 239 240 240 240 239 239 240 240 241 241 241 240 239 239 238 239 239 240 240 241 242 242 243 244 244 245 246 247 248 250 252 255 257 259 260 262 263 265 267 268 269 269
219 218 220 223 223 221 221 224 225 222 220 224 229 228 232 239 240 242 243 241 243 248 249 246 242 245 252 252 249 252 254 252 247 243 242 243 242 242 242 240 241 241 240 240 240 240 240 240 240 239 240 240 240 241 240 240 240 239 239 239 239 240 241 241 242 243 243 244 245 246 246 248 249 251 252 254 256 258 260 261 263 265 266 267 268 268
218 219 220 221 222 220 218 220 223 223 224 227 227 225 230 239 240 242 243 242 244 248 249 246 243 246 251 255 255 255 256 255 252 247 245 245 244 243 242 241 242 243 242 240 240 240 240 240 240 240 240 240 240 240 240 240 240 240 240 240 240 241 241 242 242 243 243 244 245 246 247 248 250 251 253 254 256 258 259 261 262 264 265 266 267 267
215 221 220 219 223 222 219 218 220 223 224 225 225 225 230 237 241 242 243 245 247 248 248 246 247 252 257 260 257 253 253 253 253 251 250 248 247 246 244 242 242 243 243 241 241 241 241 241 242 242 242 241 241 240 240 240 240 240 240 240 241 242 242 243 243 243 244 245 246 247 248 249 250 252 253 255 257 258 259 261 262 263 264 265 266 266
212 221 221 219 223 223 221 222 224 224 225 228 231 231 233 235 240 241 241 243 245 247 247 245 247 251 253 258 259 255 254 256 255 255 254 252 250 248 246 244 243 243 243 242 242 242 242 243 243 243 243 243 243 242 242 241 241 241 241 241 241 242 243 243 243 244 244 245 247 248 249 250 251 253 254 256 257 258 259 261 262 263 264 265 266 266
214 223 223 221 223 222 222 225 224 223 227 232 233 234 236 236 239 243 243 242 243 246 246 243 247 251 251 257 260 257 257 259 260 259 258 256 252 248 246 245 243 243 243 242 242 242 243 243 243 243 244 244 244 243 243 242 242 241 241 241 242 242 243 244 244 244 245 246 247 248 250 251 252 254 255 256 257 258 259 260 261 262 263 265 266 266
215 222 223 221 220 221 222 224 223 223 227 230 231 233 237 238 239 242 246 246 245 248 248 246 250 256 258 259 258 256 257 259 259 260 259 257 254 250 247 246 244 243 243 242 242 243 243 243 244 244 244 244 244 243 243 242 242 242 242 242 243 243 244 244 244 245 245 246 248 249 250 251 253 254 255 256 257 258 259 260 261 262 263 264 266 265
214 218 224 220 218 222 223 221 223 228 228 228 232 233 236 240 241 241 245 247 245 248 251 249 250 255 256 256 257 257 257 258 258 258 259 258 256 254 251 248 245 244 244 244 243 242 243 244 244 244 244 245 244 244 243 242 242 242 243 243 243 243 244 244 245 245 246 247 248 250 250 251 253 254 255 256 257 257 258 259 260 261 262 263 264 264
213 216 224 221 218 222 223 219 223 231 231 232 235 233 233 240 241 238 240 244 243 247 253 253 252 253 251 252 256 257 256 257 259 258 259 259 257 256 255 251 249 247 245 245 244 243 243 244 244 244 244 245 245 244 243 242 242 242 243 244 244 245 245 245 246 246 247 248 249 250 251 252 253 254 255 256 256 257 257 258 260 261 261 262 262 263
214 215 220 221 219 219 221 222 223 226 230 234 236 234 235 240 241 238 239 243 244 246 251 255 256 254 252 253 255 255 256 256 257 257 257 258 258 257 256 254 252 249 246 245 245 244 243 243 244 244 244 244 244 243 243 242 242 243 244 245 245 246 246 246 247 247 248 249 250 251 252 253 254 254 255 256 256 256 257 257 259 260 260 260 261 263
216 217 217 218 219 219 223 225 224 223 225 229 231 232 235 238 241 242 241 242 244 245 249 253 256 256 255 255 253 253 256 257 258 259 258 259 261 261 258 254 253 251 247 245 244 243 244 243 244 244 244 244 244 243 243 243 244 244 244 246 246 247 247 247 247 248 248 249 250 251 252 253 254 254 255 255 255 256 256 257 258 259 259 259 261 262
215 216 213 214 217 221 225 227 226 226 227 229 231 231 233 234 236 241 243 242 243 245 246 249 256 258 255 253 252 254 259 260 259 260 259 258 260 260 258 254 253 251 248 246 243 242 243 243 243 243 243 244 244 244 244 245 245 245 246 247 247 248 248 248 249 249 249 250 250 251 252 253 254 255 255 255 255 255 256 257 258 258 258 259 260 262
211 212 211 212 217 220 226 228 226 228 229 232 236 235 234 234 234 238 244 244 243 246 248 250 257 259 255 252 253 255 258 259 257 256 257 257 257 257 257 256 254 252 249 246 244 243 242 242 243 243 243 243 244 245 245 246 247 247 248 248 248 249 249 249 249 249 250 250 251 251 252 253 254 254 254 254 254 254 255 256 257 257 257 258 260 261
209 210 208 209 214 220 227 230 229 230 230 232 236 235 234 235 236 239 245 245 244 245 246 250 256 258 257 256 254 255 258 259 257 256 256 256 257 256 257 258 256 253 250 247 245 244 243 242 243 243 243 243 244 245 246 246 247 248 249 249 249 249 249 250 250 250 250 250 251 251 252 253 253 253 253 253 253 254 254 255 255 256 257 258 259 260
210 210 206 204 212 221 227 230 230 231 232 232 234 233 234 236 235 238 243 247 250 247 243 247 254 256 259 260 258 257 257 258 260 260 257 257 257 258 260 260 257 254 251 248 246 245 244 243 243 244 245 245 245 246 246 247 247 248 249 250 250 250 250 250 250 250 250 250 251 251 251 252 252 252 252 253 253 254 253 253 254 256 256 257 258 258
210 211 209 208 212 219 224 229 230 229 229 232 232 230 232 233 231 235 240 244 250 248 241 244 252 256 258 260 260 258 254 257 263 264 262 260 259 260 261 262 259 255 252 249 246 245 245 244 244 244 245 246 246 247 247 247 248 249 250 250 250 250 250 250 250 250 250 250 250 251 251 251 252 251 252 252 253 252 252 252 254 254 255 255 255 255
212 215 216 216 219 223 228 232 230 222 223 229 229 227 230 232 232 234 236 239 246 248 243 245 250 255 255 255 258 259 253 254 259 262 264 263 261 259 258 259 260 257 254 250 246 244 244 245 245 244 245 246 247 247 247 248 248 248 249 249 250 250 250 250 250 249 249 249 249 250 250 250 251 251 252 252 252 251 251 252 253 253 254 254 253 252
213 218 220 221 226 231 232 231 226 220 224 228 226 226 229 230 231 233 235 240 244 246 248 250 250 253 254 252 254 259 258 254 253 256 261 262 260 257 256 258 261 260 257 253 248 245 244 245 245 246 246 246 247 247 248 248 248 248 248 249 249 249 249 249 249 248 248 248 248 249 249 250 250 250 251 252 251 251 251 252 252 252 253 252 251 250
215 220 220 220 227 234 232 228 226 225 229 230 227 227 228 227 228 232 236 240 241 243 250 253 250 251 254 253 252 256 259 257 254 254 258 259 258 256 257 260 263 261 259 256 252 249 247 246 247 246 247 247 247 247 247 247 248 248 248 249 249 249 249 249 249 248 248 248 248 248 249 249 250 250 251 251 251 250 251 251 251 251 251 250 249 250
215 220 220 218 223 234 234 230 228 227 231 232 231 231 231 230 232 235 238 240 241 246 251 255 256 256 256 255 255 256 257 258 256 255 254 255 255 255 256 260 263 261 258 256 255 253 250 249 249 248 247 248 247 248 248 248 248 248 248 249 249 249 249 249 248 248 248 248 248 248 249 249 249 249 250 250 249 249 250 250 250 249 248 248 249 249
214 218 221 217 221 233 235 230 229 229 230 232 234 235 235 235 237 239 241 241 243 248 251 254 260 261 255 252 257 260 260 260 259 257 253 251 251 252 253 256 260 260 258 257 255 255 254 253 252 250 250 249 249 249 249 249 249 249 249 249 250 250 250 249 249 248 248 248 248 248 248 248 248 248 248 248 248 248 249 248 248 248 248 248 249 249
215 219 222 218 219 228 231 228 229 232 235 239 241 239 236 236 238 240 242 242 242 246 249 251 256 259 256 251 254 259 261 261 260 259 257 253 250 248 248 252 256 257 258 257 256 255 255 254 254 253 252 251 250 250 249 249 249 249 249 249 250 250 250 249 249 249 248 248 248 248 247 248 248 248 248 248 248 248 248 248 248 248 248 248 249 250
213 217 220 217 217 225 229 226 226 232 241 247 245 239 235 237 240 241 243 243 242 244 246 248 253 258 257 253 253 257 259 259 259 258 257 256 252 247 247 249 252 254 255 256 256 255 255 255 255 253 253 252 252 250 250 249 249 249 249 249 249 250 250 249 249 248 247 247 247 247 248 248 248 248 248 248 248 248 248 248 248 248 248 248 249 251
212 214 218 217 216 221 224 222 222 229 239 246 246 236 231 235 237 239 243 243 242 243 247 251 257 259 256 253 253 255 255 255 257 256 255 255 253 250 249 249 251 253 254 255 256 256 257 257 256 255 253 253 252 251 250 250 250 250 250 249 250 250 250 249 249 248 247 247 247 247 248 248 247 247 248 248 248 248 248 248 248 248 249 249 250 252
211 213 217 218 215 216 217 214 219 230 238 245 248 237 230 234 237 240 245 246 245 246 250 254 257 257 255 254 253 253 253 254 256 256 255 254 252 250 249 248 249 252 253 255 256 256 257 257 256 255 254 254 253 252 251 250 250 250 250 250 250 250 250 250 249 248 247 247 247 247 247 247 247 247 247 248 248 248 248 249 249 249 250 251 252 253
209 210 213 214 213 214 214 214 223 238 244 247 248 244 239 239 240 243 248 251 248 248 250 252 255 256 255 255 255 256 257 259 260 259 257 256 254 251 249 248 248 250 252 254 254 254 256 256 255 256 256 255 254 252 251 251 250 250 250 250 250 250 250 250 249 248 247 246 246 246 246 247 247 247 248 248 249 249 249 250 250 250 251 253 254 255
209 209 211 212 215 218 218 221 232 247 253 248 245 245 243 241 239 241 249 254 251 249 251 252 254 255 255 255 256 257 260 263 264 263 260 258 255 252 250 249 247 248 252 254 253 253 255 256 256 257 257 256 254 253 252 251 250 250 250 250 250 249 249 249 249 248 247 246 246 246 247 247 248 248 249 249 250 250 251 251 251 252 253 254 255 257
209 211 212 214 220 223 222 228 236 244 249 247 243 242 241 238 237 241 252 258 254 249 250 252 253 254 255 255 255 255 258 262 264 265 262 258 255 254 253 251 249 249 251 252 252 253 254 255 256 257 256 255 254 253 252 251 250 250 249 249 249 249 249 249 249 248 248 247 247 247 248 248 249 249 250 250 251 251 252 252 253 253 254 255 256 258
207 212 214 217 223 223 222 227 233 237 243 245 240 240 239 236 236 242 256 263 259 251 248 249 251 252 252 252 251 250 254 259 262 264 263 260 258 256 255 254 252 251 251 251 251 252 253 254 255 256 255 254 253 253 252 251 250 250 250 251 250 250 250 250 250 250 249 249 249 249 249 250 250 251 251 251 252 252 252 253 253 254 256 257 258 259
209 213 215 218 223 223 224 230 235 239 243 243 240 240 238 235 235 241 254 262 261 254 248 246 247 249 249 249 250 250 253 256 260 263 264 263 261 259 257 256 255 254 252 252 252 252 252 253 254 254 253 253 253 253 252 252 252 252 252 253 252 252 252 251 251 251 251 251 251 251 251 251 251 252 252 252 253 253 253 254 255 255 256 257 259 260
212 215 218 220 223 224 226 232 239 242 242 243 243 240 233 231 237 242 248 256 256 252 250 246 244 246 246 246 248 251 253 254 257 261 263 263 261 259 259 259 257 256 255 253 252 252 251 252 253 253 254 255 255 254 253 253 253 253 253 254 254 254 254 253 253 253 253 253 253 253 253 253 253 253 253 253 254 254 254 255 255 256 257 258 259 260
211 214 218 220 222 225 228 232 241 247 244 240 241 239 233 234 242 246 250 254 254 252 253 252 249 248 248 246 248 251 254 256 257 259 261 260 258 258 258 258 256 255 255 254 253 252 251 252 253 254 255 256 255 255 254 254 254 255 255 255 255 255 256 256 255 255 255 255 255 255 255 255 254 254 254 255 254 254 255 255 256 257 258 259 259 260
212 212 217 220 221 225 228 229 238 247 243 232 230 238 242 243 247 250 253 257 257 254 253 253 253 254 253 251 252 254 257 258 257 257 258 258 257 257 257 256 254 254 255 255 254 252 251 251 252 254 254 255 254 254 254 254 255 256 257 256 257 257 257 257 256 256 256 256 256 256 256 256 256 256 256 256 255 255 255 256 256 257 257 258 259 260
215 215 219 221 221 222 225 227 234 244 241 230 228 239 245 247 251 252 251 253 255 253 252 253 255 256 255 254 254 255 256 257 257 257 256 256 255 255 254 254 254 254 255 254 253 252 252 252 253 254 255 256 256 256 256 255 256 257 258 258 258 258 258 257 257 257 257 257 257 257 258 258 257 257 257 257 256 255 255 256 256 257 258 258 259 260
219 219 221 224 225 226 230 233 238 243 240 235 238 242 239 241 249 254 250 249 249 248 250 254 254 254 253 252 252 253 254 255 255 254 254 254 253 252 252 252 253 253 253 253 253 254 253 253 254 255 257 258 258 258 258 258 258 258 259 259 260 259 259 259 258 258 258 258 259 259 259 259 259 258 258 257 257 256 256 256 256 257 258 259 259 260
223 221 222 225 229 233 237 238 238 242 242 240 242 245 238 236 243 249 248 247 247 246 248 250 250 250 250 250 251 252 253 253 253 252 252 252 252 251 251 251 251 252 253 254 255 255 255 255 256 256 258 259 260 260 261 261 260 260 261 261 261 261 261 260 260 260 260 260 260 260 260 260 260 260 259 258 258 258 257 257 257 257 257 258 259 260
225 222 223 226 228 231 236 236 234 237 240 238 240 245 243 239 239 243 245 247 247 245 245 247 249 251 251 250 249 251 252 252 251 252 251 251 251 252 251 251 251 252 254 255 255 256 256 257 258 258 259 260 261 262 263 263 263 263 263 262 262 262 262 261 261 261 261 261 262 262 261 260 260 260 259 259 259 258 258 258 258 258 258 259 259 260
225 223 224 227 228 231 237 239 236 236 239 238 238 242 242 239 238 241 245 246 246 245 246 249 251 252 252 250 248 249 250 251 251 252 252 252 252 252 252 251 251 253 254 255 256 257 258 258 259 260 261 262 263 264 265 265 265 265 265 264 264 263 263 263 262 262 263 263 263 263 263 262 261 261 261 260 259 259 259 258 258 259 259 259 260 261
223 223 225 228 230 235 241 243 239 239 243 243 241 241 242 241 240 241 244 246 246 246 247 249 252 253 251 250 249 248 249 251 252 253 254 254 254 254 253 253 254 255 256 257 258 259 259 260 261 261 262 264 265 266 267 267 267 267 266 266 265 264 264 263 263 264 264 264 264 264 264 264 263 263 262 262 261 261 260 260 260 260 260 260 261 262
222 224 227 227 229 234 239 238 235 238 243 243 240 240 242 243 242 242 244 245 245 245 245 246 249 252 252 253 251 249 249 251 253 254 255 256 257 257 256 256 257 258 259 260 261 261 262 262 262 263 264 266 268 268 269 269 269 269 268 267 267 266 265 265 265 265 265 265 265 265 265 265 265 264 263 263 262 262 262 261 261 261 261 261 262 263
224 226 226 227 231 237 238 234 232 238 244 244 239 239 240 241 240 241 242 242 243 244 245 245 247 249 251 253 253 251 250 251 252 253 255 258 258 258 257 257 257 258 260 260 261 263 263 264 264 264 266 267 269 269 270 271 271 270 270 269 268 267 266 266 266 266 266 267 267 267 266 266 265 265 264 263 262 262 262 262 263 263 263 263 263 264